STARLINK-30548, 58046

Orbit data source: Space-Track

STARLINK-30548, 58046 is a payload satellite owned by SpaceX/Seattle (US) in LEO that was launched on Mon, 09 Oct 2023 UTC via an FALCON 9 launch vehicle from the Air Force Western Test Range (AFWTR). Payload-class satellites include a variety of spacecraft equipped with specific instruments for various scientific and technological missions. These include communications satellites like Starlink; space stations such as the ISS; scientific satellites like the Hubble; Earth observation satellites from companies like Planet Labs, Umbra, and HawkEye 360; GPS; miniature CubeSats for education and research; and military/defense satellites.

Loading next visibility...
Identifier
58046, 2023-156U
Orbit
LEO
Country
Flag of USUS
Related business
Manufacturer
SpaceX/Seattle
Mission
Operational Commercial Communications
Bus & Motor
STARLINK V2M, Unknown motor
Mass
730 kg wet, ~700 kg dry
Launch date (UTC)
2023-10-09 (2 years ago)
Launch vehicle
FALCON 9
Launch site
Air Force Western Test Range (AFWTR)
Object type
Payload
Rocket body
Debris
Shape & HBR
Box + 2 Pan, 17.7 m
Radar Cross Section
33.884 m², Large (>1 m²)

Expand to show TLE details & history
Last TLE update: 18 hours ago

TLE from 18 hours ago
0 STARLINK-30548
1 58046U 23156U   25348.91774828  .00000431  00000-0  26683-4 0  9995
2 58046  53.1595 201.9603 0001206  77.3837 282.7298 15.30187381122008
Epoch: 2025-12-14T22:01Z
TLE epoch observation values (Epoch: 2025-12-14T22:01:33.451Z)
Latitude
-0.00006°
Longitude
147.74709°
Altitude
475.97 km
Speed
7.629 km/s
True Right ascension
13h 27m 50s
True Declination
0° 00' 00"
Sunlit
Object was in daylight at epoch
Visualization orbit readout
Latitude
Unknown
Longitude
Unknown
Altitude
Unknown
Speed
Unknown
Apparent Right ascension
Unknown
Apparent Declination
Unknown
Sunlit
N/A
Visualization observer readout
Local Sidereal Time
15:08:15
Azimuth
Unknown
Elevation
Unknown
Doppler factor
Unknown
Orbital elements
Apogee altitude
476.336 km
Perigee altitude
474.683 km
Semi-major axis
6,853.646 km
Eccentricity
0.00012
Inclination
53.1595°
RAAN
201.9603°
Arg. of periapsis
77.3837°
True anomaly
282.71632°
Mean anomaly
282.7298°
Eccentric anomaly
282.72306°
Mean motion
3.82526 °/min
Orbital period
94.11 mins
BSTAR
0.000026683
Loading maneuver chart data...
Computing Atmospheric mass density...
Loading historical data...
Loading historical data...
Loading historical data...
Loading historical data...
Loading historical data...
Loading historical data...
Loading historical data...

Documentation

Showing up to 5 results
|